Simultaneous Nadir Overpasses (SNOs) Predictions

Prediction of SNOs between AQUA and LANDSAT-8 Satellite Orbit:

Table of predicted SNOs for the next 14.0 days since TLE Epoch: 5/13/2025
Index Date (AQUA) Time (AQUA) Lat,Lon (AQUA) SZA (AQUA ) Date (LANDSAT-8) Time (LANDSAT-8) Lat,Lon (LANDSAT-8) SZA (LANDSAT-8 ) Distance(km) Time Diff (sec)
1 05/26/2025 09:38:08 -74.79,-136.87 126.31 05/26/2025 09:37:02 -74.75,-139.50 126.47 76.99 66
2 05/26/2025 10:27:31 75.00, 30.24 53.87 05/26/2025 10:26:22 75.01, 28.84 53.82 40.43 69
3 05/26/2025 11:16:54 -75.28,-162.84 125.89 05/26/2025 11:15:44 -75.30,-162.75 125.88 3.37 70
4 05/26/2025 12:06:13 75.29, 4.79 54.12 05/26/2025 12:05:10 75.27, 4.80 54.08 2.97 63
5 05/26/2025 12:55:29 -75.27, 172.54 125.91 05/26/2025 12:54:36 -75.30, 172.53 125.89 3.75 53
6 05/26/2025 13:44:48 75.28, -19.82 54.10 05/26/2025 13:44:02 75.27, -19.92 54.07 3.00 46
7 05/26/2025 14:34:06 -75.31, 147.78 125.89 05/26/2025 14:33:29 -75.31, 147.82 125.90 1.10 37
8 05/26/2025 15:23:25 75.32, -44.58 54.12 05/26/2025 15:22:54 75.32, -44.49 54.12 2.57 31
9 05/26/2025 16:12:42 -75.30, 123.16 125.91 05/26/2025 16:12:22 -75.31, 123.10 125.90 2.02 20
10 05/26/2025 17:02:01 75.31, -69.20 54.10 05/26/2025 17:01:47 75.33, -69.21 54.11 1.47 14
11 05/26/2025 17:51:19 -75.34, 98.40 125.89 05/26/2025 17:51:15 -75.31, 98.39 125.91 2.86 4
12 05/26/2025 18:40:38 75.35, -93.96 54.12 05/26/2025 18:40:40 75.33, -93.92 54.10 2.86 2
13 05/26/2025 19:29:55 -75.33, 73.79 125.91 05/26/2025 19:30:08 -75.31, 73.68 125.92 3.34 13
14 05/26/2025 20:19:14 75.34,-118.58 54.10 05/26/2025 20:19:33 75.33,-118.63 54.09 1.90 19
15 05/26/2025 21:08:32 -75.37, 49.03 125.89 05/26/2025 21:09:00 -75.37, 49.10 125.88 2.12 28
16 05/26/2025 21:57:51 75.38,-143.34 54.13 05/26/2025 21:58:25 75.38,-143.21 54.14 3.72 34
17 05/26/2025 22:47:08 -75.35, 24.41 125.91 05/26/2025 22:47:53 -75.37, 24.39 125.89 1.68 45
18 05/26/2025 23:36:27 75.37,-167.96 54.11 05/26/2025 23:37:18 75.38,-167.92 54.13 2.04 51
19 05/27/2025 00:25:45 -75.39, -0.35 125.88 05/27/2025 00:26:46 -75.37, -0.33 125.89 2.57 61
20 05/27/2025 01:15:04 75.41, 167.28 54.13 05/27/2025 01:16:11 75.39, 167.36 54.12 3.30 67
21 05/27/2025 02:04:25 -75.58, -25.54 125.73 05/27/2025 02:05:35 -75.57, -24.48 125.69 29.54 70
22 05/27/2025 02:53:49 75.84, 141.34 54.51 05/27/2025 02:54:55 75.84, 143.94 54.60 70.78 66



Historial Predications of SNOs between AQUA and LANDSAT-8
